When you browse on this site, cookies collect data to enhance your experience and personalize the content and advertising you see.
Visit our Privacy Policy to learn more. By continuing to use the site, you agree to this use of cookies and data.
  • In Portugal
  • List of Countries
  • For 7 days
  • Water Temperature
  • Satellite Maps
  • Weather Map
  • Weather Widgets
  • user-avatar
    Login

    Hourly Weather Andora

    Today, 17 January, Thursday

    Time Temperature Precipitation Wind Pressure Humidity
    00:00 -1°C° 0 mm 1 mps 619 mmHg 66%
    01:00 -1°C° 0 mm 1 mps 619 mmHg 66%
    02:00 -1°C° 0 mm 1 mps 619 mmHg 67%
    03:00 -1°C° 0 mm 1 mps 619 mmHg 67%
    04:00 -2°C° 0 mm 1 mps 619 mmHg 70%
    05:00 -2°C° 0 mm 1 mps 618 mmHg 72%
    06:00 -2°C° 0 mm 1 mps 618 mmHg 75%
    07:00 -1°C° 0 mm 1 mps 619 mmHg 75%
    08:00 0°C° 0 mm 1 mps 620 mmHg 74%
    09:00 -1°C° 0 mm 2 mps 620 mmHg 74%
    10:00 +1°C° 0.3 mm 2 mps 621 mmHg 73%
    11:00 +1°C° 0.3 mm 2 mps 621 mmHg 71%
    12:00 +2°C° 0.3 mm 2 mps 621 mmHg 70%
    13:00 +2°C° 0.2 mm 2 mps 621 mmHg 72%
    14:00 +1°C° 0.2 mm 2 mps 620 mmHg 74%
    15:00 +1°C° 0.2 mm 2 mps 620 mmHg 76%
    16:00 -2°C° 0.1 mm 2 mps 620 mmHg 79%
    17:00 -3°C° 0.1 mm 2 mps 620 mmHg 83%
    18:00 -4°C° 0.1 mm 2 mps 620 mmHg 86%
    19:00 -4°C° 0 mm 2 mps 620 mmHg 86%
    20:00 -5°C° 0 mm 2 mps 620 mmHg 86%
    21:00 -5°C° 0 mm 2 mps 620 mmHg 86%
    22:00 -6°C° 0 mm 2 mps 620 mmHg 86%
    23:00 -6°C° 0 mm 2 mps 620 mmHg 86%

    Tomorrow, 18 January, Friday

    Time Temperature Precipitation Wind Pressure Humidity
    00:00 -6°C° 0 mm 2 mps 620 mmHg 86%
    01:00 -6°C° 0 mm 2 mps 620 mmHg 86%
    02:00 -7°C° 0 mm 2 mps 619 mmHg 86%
    03:00 -7°C° 0 mm 2 mps 619 mmHg 86%
    04:00 -7°C° 0 mm 2 mps 619 mmHg 85%
    05:00 -7°C° 0 mm 2 mps 619 mmHg 83%
    06:00 -7°C° 0 mm 2 mps 619 mmHg 81%
    07:00 -6°C° 0 mm 2 mps 619 mmHg 78%
    08:00 -5°C° 0 mm 2 mps 620 mmHg 75%
    09:00 -4°C° 0 mm 2 mps 620 mmHg 72%
    10:00 -2°C° 0 mm 2 mps 621 mmHg 66%
    11:00 +1°C° 0 mm 1 mps 621 mmHg 59%
    12:00 +2°C° 0 mm 1 mps 622 mmHg 53%
    13:00 +2°C° 0 mm 1 mps 621 mmHg 56%
    14:00 +1°C° 0 mm 1 mps 621 mmHg 59%
    15:00 +1°C° 0 mm 1 mps 620 mmHg 62%
    16:00 0°C° 0 mm 1 mps 620 mmHg 68%
    17:00 -1°C° 0 mm 1 mps 619 mmHg 75%
    18:00 -3°C° 0 mm 0 mps 619 mmHg 82%
    19:00 -3°C° 0 mm 0 mps 619 mmHg 81%
    20:00 -3°C° 0 mm 0 mps 619 mmHg 80%
    21:00 -3°C° 0 mm 0 mps 620 mmHg 79%
    22:00 -3°C° 0 mm 0 mps 620 mmHg 79%
    23:00 -3°C° 0 mm 0 mps 619 mmHg 79%

    Day after tomorrow, 19 January, Saturday

    Time Temperature Precipitation Wind Pressure Humidity
    00:00 -4°C° 0 mm 0 mps 619 mmHg 79%
    01:00 -4°C° 0 mm 0 mps 619 mmHg 80%
    02:00 -5°C° 0 mm 0 mps 618 mmHg 81%
    03:00 -5°C° 0 mm 0 mps 618 mmHg 82%
    04:00 -5°C° 0 mm 0 mps 618 mmHg 81%
    05:00 -5°C° 0 mm 0 mps 618 mmHg 80%
    06:00 -5°C° 0 mm 0 mps 617 mmHg 79%
    07:00 -3°C° 0 mm 1 mps 618 mmHg 75%
    08:00 -2°C° 0 mm 1 mps 618 mmHg 70%
    09:00 0°C° 0 mm 1 mps 618 mmHg 65%
    10:00 +1°C° 0 mm 1 mps 619 mmHg 62%
    11:00 +1°C° 0 mm 2 mps 619 mmHg 58%
    12:00 +2°C° 0 mm 2 mps 619 mmHg 55%
    13:00 +2°C° 0 mm 2 mps 618 mmHg 58%
    14:00 +2°C° 0 mm 2 mps 617 mmHg 60%
    15:00 +2°C° 0 mm 2 mps 617 mmHg 63%
    16:00 -1°C° 0 mm 2 mps 616 mmHg 71%
    17:00 0°C° 0 mm 1 mps 615 mmHg 80%
    18:00 -1°C° 0 mm 1 mps 615 mmHg 88%
    19:00 -1°C° 0 mm 1 mps 615 mmHg 88%
    20:00 -1°C° 0 mm 1 mps 615 mmHg 88%
    21:00 -1°C° 0 mm 1 mps 615 mmHg 88%
    22:00 -1°C° 0 mm 1 mps 615 mmHg 86%
    23:00 -1°C° 0 mm 1 mps 615 mmHg 85%

    20 January, Sunday

    Time Temperature Precipitation Wind Pressure Humidity
    00:00 -1°C° 0 mm 1 mps 615 mmHg 83%
    01:00 -1°C° 0.1 mm 1 mps 616 mmHg 84%
    02:00 -3°C° 0.1 mm 2 mps 616 mmHg 85%
    03:00 -3°C° 0.1 mm 2 mps 616 mmHg 85%
    04:00 -3°C° 0.2 mm 2 mps 616 mmHg 85%
    05:00 -3°C° 0.2 mm 2 mps 616 mmHg 86%
    06:00 -3°C° 0.2 mm 2 mps 617 mmHg 86%
    07:00 -2°C° 0.1 mm 3 mps 617 mmHg 84%
    08:00 -2°C° 0.1 mm 3 mps 618 mmHg 82%
    09:00 -2°C° 0.1 mm 3 mps 619 mmHg 80%
    10:00 -1°C° 0.1 mm 3 mps 619 mmHg 75%
    11:00 -1°C° 0.1 mm 3 mps 620 mmHg 70%
    12:00 0°C° 0.1 mm 3 mps 620 mmHg 64%
    13:00 0°C° 0 mm 3 mps 620 mmHg 64%
    14:00 0°C° 0 mm 3 mps 620 mmHg 63%
    15:00 -1°C° 0 mm 3 mps 620 mmHg 62%
    16:00 -2°C° 0 mm 3 mps 619 mmHg 69%
    17:00 -5°C° 0 mm 3 mps 619 mmHg 75%
    18:00 -5°C° 0 mm 2 mps 619 mmHg 82%
    19:00 -5°C° 0 mm 2 mps 619 mmHg 81%
    20:00 -5°C° 0 mm 2 mps 620 mmHg 81%
    21:00 -5°C° 0 mm 2 mps 620 mmHg 80%
    22:00 -5°C° 0.1 mm 2 mps 620 mmHg 82%
    23:00 -4°C° 0.1 mm 2 mps 620 mmHg 85%

    21 January, Monday

    Time Temperature Precipitation Wind Pressure Humidity
    00:00 -4°C° 0.1 mm 2 mps 621 mmHg 87%
    01:00 -4°C° 0.1 mm 2 mps 621 mmHg 87%
    02:00 -4°C° 0.1 mm 2 mps 621 mmHg 87%
    03:00 -4°C° 0.1 mm 2 mps 621 mmHg 87%
    04:00 -4°C° 0.1 mm 2 mps 620 mmHg 87%
    05:00 -5°C° 0.1 mm 2 mps 620 mmHg 87%
    06:00 -5°C° 0.1 mm 2 mps 620 mmHg 87%
    07:00 -4°C° 0.2 mm 2 mps 621 mmHg 84%
    08:00 -4°C° 0.2 mm 2 mps 621 mmHg 81%
    09:00 -4°C° 0.2 mm 3 mps 622 mmHg 78%
    10:00 -4°C° 0.2 mm 3 mps 622 mmHg 75%
    11:00 -2°C° 0.2 mm 3 mps 622 mmHg 71%
    12:00 -3°C° 0.2 mm 4 mps 622 mmHg 67%
    13:00 -3°C° 0.1 mm 4 mps 622 mmHg 67%
    14:00 -4°C° 0.1 mm 4 mps 621 mmHg 67%
    15:00 -4°C° 0.1 mm 4 mps 621 mmHg 66%
    16:00 -7°C° 0 mm 4 mps 621 mmHg 71%
    17:00 -7°C° 0 mm 3 mps 621 mmHg 76%
    18:00 -8°C° 0 mm 3 mps 620 mmHg 81%
    19:00 -9°C° 0 mm 3 mps 621 mmHg 81%
    20:00 -9°C° 0 mm 3 mps 621 mmHg 82%
    21:00 -9°C° 0 mm 3 mps 621 mmHg 82%
    22:00 -9°C° 0 mm 3 mps 621 mmHg 82%
    23:00 -10°C° 0 mm 3 mps 620 mmHg 81%

    22 January, Tuesday

    Time Temperature Precipitation Wind Pressure Humidity
    00:00 -10°C° 0 mm 3 mps 620 mmHg 81%
    01:00 -10°C° 0 mm 3 mps 620 mmHg 81%
    02:00 -12°C° 0 mm 3 mps 619 mmHg 81%
    03:00 -12°C° 0 mm 3 mps 619 mmHg 82%
    04:00 -10°C° 0 mm 2 mps 618 mmHg 79%
    05:00 -10°C° 0 mm 2 mps 618 mmHg 77%
    06:00 -10°C° 0 mm 2 mps 617 mmHg 74%
    07:00 -9°C° 0 mm 2 mps 617 mmHg 69%
    08:00 -8°C° 0 mm 2 mps 618 mmHg 63%
    09:00 -6°C° 0 mm 2 mps 618 mmHg 58%
    10:00 -5°C° 0 mm 2 mps 617 mmHg 55%
    11:00 -3°C° 0 mm 2 mps 617 mmHg 52%
    12:00 -2°C° 0 mm 2 mps 616 mmHg 50%
    13:00 -3°C° 0.4 mm 2 mps 615 mmHg 59%
    14:00 -4°C° 0.4 mm 2 mps 614 mmHg 68%
    15:00 -3°C° 0.4 mm 1 mps 612 mmHg 77%
    16:00 -3°C° 0.6 mm 1 mps 611 mmHg 83%
    17:00 -4°C° 0.6 mm 1 mps 611 mmHg 88%
    18:00 -4°C° 0.6 mm 1 mps 610 mmHg 94%
    19:00 -4°C° 0.7 mm 1 mps 609 mmHg 93%
    20:00 -6°C° 0.7 mm 2 mps 609 mmHg 92%
    21:00 -6°C° 0.7 mm 2 mps 609 mmHg 91%
    22:00 -6°C° 0.2 mm 2 mps 608 mmHg 89%
    23:00 -7°C° 0.2 mm 2 mps 608 mmHg 88%
    Show more